Year,Month,Day,Hour,Minute,Value (Times are PST for temperature in C)
2015,08,13,00,00,20.70
2015,08,13,00,01,20.70
2015,08,13,00,02,20.70
2015,08,13,00,03,20.60
2015,08,13,00,04,20.50
2015,08,13,00,05,20.40
2015,08,13,00,06,20.30
2015,08,13,00,07,20.30
2015,08,13,00,08,20.20
2015,08,13,00,09,20.10
2015,08,13,00,10,20.10
2015,08,13,00,11,20.10
2015,08,13,00,12,20.00
2015,08,13,00,13,20.00
2015,08,13,00,14,20.00
2015,08,13,00,15,19.90
2015,08,13,00,16,19.80
2015,08,13,00,17,19.70
2015,08,13,00,18,19.60
2015,08,13,00,19,19.40
2015,08,13,00,20,19.30
2015,08,13,00,21,19.30
2015,08,13,00,22,19.20
2015,08,13,00,23,19.20
2015,08,13,00,24,19.10
2015,08,13,00,25,19.10
2015,08,13,00,26,19.10
2015,08,13,00,27,19.00
2015,08,13,00,28,19.00
2015,08,13,00,29,19.00
2015,08,13,00,30,19.00
2015,08,13,00,31,19.10
2015,08,13,00,32,19.10
2015,08,13,00,33,19.20
2015,08,13,00,34,19.30
2015,08,13,00,35,19.30
2015,08,13,00,36,19.40
2015,08,13,00,37,19.40
2015,08,13,00,38,19.50
2015,08,13,00,39,19.50
2015,08,13,00,40,19.40
2015,08,13,00,41,19.40
2015,08,13,00,42,19.40
2015,08,13,00,43,19.30
2015,08,13,00,44,19.30
2015,08,13,00,45,19.30
2015,08,13,00,46,19.20
2015,08,13,00,47,19.20
2015,08,13,00,48,19.10
2015,08,13,00,49,19.10
2015,08,13,00,50,19.00
2015,08,13,00,51,18.90
2015,08,13,00,52,18.80
2015,08,13,00,53,18.70
2015,08,13,00,54,18.60
2015,08,13,00,55,18.50
2015,08,13,00,56,18.50
2015,08,13,00,57,18.40
2015,08,13,00,58,18.40
2015,08,13,00,59,18.40
2015,08,13,01,00,18.40
2015,08,13,01,01,18.40
2015,08,13,01,02,18.40
2015,08,13,01,03,18.40
2015,08,13,01,04,18.40
2015,08,13,01,05,18.50
2015,08,13,01,06,18.60
2015,08,13,01,07,18.60
2015,08,13,01,08,18.60
2015,08,13,01,09,18.70
2015,08,13,01,10,18.70
2015,08,13,01,11,18.70
2015,08,13,01,12,18.80
2015,08,13,01,13,18.80
2015,08,13,01,14,18.90
2015,08,13,01,15,18.90
2015,08,13,01,16,18.90
2015,08,13,01,17,19.00
2015,08,13,01,18,19.00
2015,08,13,01,19,18.90
2015,08,13,01,20,18.90
2015,08,13,01,21,18.80
2015,08,13,01,22,18.70
2015,08,13,01,23,18.60
2015,08,13,01,24,18.60
2015,08,13,01,25,18.60
2015,08,13,01,26,18.50
2015,08,13,01,27,18.40
2015,08,13,01,28,18.30
2015,08,13,01,29,18.20
2015,08,13,01,30,18.10
2015,08,13,01,31,18.10
2015,08,13,01,32,18.00
2015,08,13,01,33,18.00
2015,08,13,01,34,17.90
2015,08,13,01,35,17.90
2015,08,13,01,36,17.80
2015,08,13,01,37,17.80
2015,08,13,01,38,17.80
2015,08,13,01,39,17.80
2015,08,13,01,40,17.80
2015,08,13,01,41,17.90
2015,08,13,01,42,17.90
2015,08,13,01,43,17.90
2015,08,13,01,44,17.90
2015,08,13,01,45,17.90
2015,08,13,01,46,17.90
2015,08,13,01,47,17.80
2015,08,13,01,48,17.80
2015,08,13,01,49,17.70
2015,08,13,01,50,17.60
2015,08,13,01,51,17.50
2015,08,13,01,52,17.30
2015,08,13,01,53,17.20
2015,08,13,01,54,17.10
2015,08,13,01,55,17.00
2015,08,13,01,56,16.90
2015,08,13,01,57,16.80
2015,08,13,01,58,16.70
2015,08,13,01,59,16.70
2015,08,13,02,00,16.60
2015,08,13,02,01,16.50
2015,08,13,02,02,16.50
2015,08,13,02,03,16.50
2015,08,13,02,04,16.50
2015,08,13,02,05,16.50
2015,08,13,02,06,16.50
2015,08,13,02,07,16.50
2015,08,13,02,08,16.50
2015,08,13,02,09,16.50
2015,08,13,02,10,16.60
2015,08,13,02,11,16.60
2015,08,13,02,12,16.60
2015,08,13,02,13,16.70
2015,08,13,02,14,16.90
2015,08,13,02,15,17.00
2015,08,13,02,16,17.20
2015,08,13,02,17,17.30
2015,08,13,02,18,17.40
2015,08,13,02,19,17.40
2015,08,13,02,20,17.40
2015,08,13,02,21,17.40
2015,08,13,02,22,17.40
2015,08,13,02,23,17.30
2015,08,13,02,24,17.30
2015,08,13,02,25,17.20
2015,08,13,02,26,17.10
2015,08,13,02,27,17.00
2015,08,13,02,28,17.00
2015,08,13,02,29,17.00
2015,08,13,02,30,16.90
2015,08,13,02,31,16.80
2015,08,13,02,32,16.70
2015,08,13,02,33,16.60
2015,08,13,02,34,16.50
2015,08,13,02,35,16.40
2015,08,13,02,36,16.30
2015,08,13,02,37,16.20
2015,08,13,02,38,16.10
2015,08,13,02,39,16.10
2015,08,13,02,40,16.10
2015,08,13,02,41,16.10
2015,08,13,02,42,16.10
2015,08,13,02,43,16.10
2015,08,13,02,44,16.10
2015,08,13,02,45,16.10
2015,08,13,02,46,16.10
2015,08,13,02,47,16.10
2015,08,13,02,48,16.20
2015,08,13,02,49,16.20
2015,08,13,02,50,16.20
2015,08,13,02,51,16.20
2015,08,13,02,52,16.20
2015,08,13,02,53,16.20
2015,08,13,02,54,16.20
2015,08,13,02,55,16.20
2015,08,13,02,56,16.20
2015,08,13,02,57,16.20
2015,08,13,02,58,16.20
2015,08,13,02,59,16.10
2015,08,13,03,00,16.10
2015,08,13,03,01,16.10
2015,08,13,03,02,16.10
2015,08,13,03,03,16.10
2015,08,13,03,04,16.10
2015,08,13,03,05,16.20
2015,08,13,03,06,16.20
2015,08,13,03,07,16.20
2015,08,13,03,08,16.20
2015,08,13,03,09,16.20
2015,08,13,03,10,16.20
2015,08,13,03,11,16.10
2015,08,13,03,12,16.10
2015,08,13,03,13,16.10
2015,08,13,03,14,16.00
2015,08,13,03,15,16.00
2015,08,13,03,16,16.00
2015,08,13,03,17,15.90
2015,08,13,03,18,15.90
2015,08,13,03,19,15.90
2015,08,13,03,20,15.90
2015,08,13,03,21,15.90
2015,08,13,03,22,15.80
2015,08,13,03,23,15.80
2015,08,13,03,24,15.80
2015,08,13,03,25,15.80
2015,08,13,03,26,15.80
2015,08,13,03,27,15.80
2015,08,13,03,28,15.80
2015,08,13,03,29,15.80
2015,08,13,03,30,15.80
2015,08,13,03,31,15.80
2015,08,13,03,32,15.80
2015,08,13,03,33,15.80
2015,08,13,03,34,15.80
2015,08,13,03,35,15.90
2015,08,13,03,36,15.90
2015,08,13,03,37,15.90
2015,08,13,03,38,15.90
2015,08,13,03,39,15.80
2015,08,13,03,40,15.80
2015,08,13,03,41,15.80
2015,08,13,03,42,15.80
2015,08,13,03,43,15.80
2015,08,13,03,44,15.70
2015,08,13,03,45,15.70
2015,08,13,03,46,15.60
2015,08,13,03,47,15.50
2015,08,13,03,48,15.50
2015,08,13,03,49,15.40
2015,08,13,03,50,15.30
2015,08,13,03,51,15.30
2015,08,13,03,52,15.20
2015,08,13,03,53,15.20
2015,08,13,03,54,15.20
2015,08,13,03,55,15.20
2015,08,13,03,56,15.20
2015,08,13,03,57,15.20
2015,08,13,03,58,15.20
2015,08,13,03,59,15.20
2015,08,13,04,00,15.20
2015,08,13,04,01,15.20
2015,08,13,04,02,15.20
2015,08,13,04,03,15.30
2015,08,13,04,04,15.30
2015,08,13,04,05,15.30
2015,08,13,04,06,15.40
2015,08,13,04,07,15.40
2015,08,13,04,08,15.50
2015,08,13,04,09,15.50
2015,08,13,04,10,15.50
2015,08,13,04,11,15.50
2015,08,13,04,12,15.40
2015,08,13,04,13,15.40
2015,08,13,04,14,15.30
2015,08,13,04,15,15.10
2015,08,13,04,16,15.00
2015,08,13,04,17,15.00
2015,08,13,04,18,15.00
2015,08,13,04,19,15.00
2015,08,13,04,20,15.00
2015,08,13,04,21,15.00
2015,08,13,04,22,15.00
2015,08,13,04,23,15.00
2015,08,13,04,24,15.00
2015,08,13,04,25,15.00
2015,08,13,04,26,15.00
2015,08,13,04,27,15.00
2015,08,13,04,28,15.00
2015,08,13,04,29,15.00
2015,08,13,04,30,15.00
2015,08,13,04,31,15.00
2015,08,13,04,32,15.00
2015,08,13,04,33,15.00
2015,08,13,04,34,15.00
2015,08,13,04,35,15.00
2015,08,13,04,36,15.00
2015,08,13,04,37,15.00
2015,08,13,04,38,15.00
2015,08,13,04,39,15.00
2015,08,13,04,40,15.00
2015,08,13,04,41,15.00
2015,08,13,04,42,15.00
2015,08,13,04,43,14.90
2015,08,13,04,44,14.80
2015,08,13,04,45,14.80
2015,08,13,04,46,14.80
2015,08,13,04,47,14.80
2015,08,13,04,48,14.80
2015,08,13,04,49,14.80
2015,08,13,04,50,14.80
2015,08,13,04,51,14.80
2015,08,13,04,52,14.80
2015,08,13,04,53,14.80
2015,08,13,04,54,14.90
2015,08,13,04,55,14.90
2015,08,13,04,56,15.00
2015,08,13,04,57,15.00
2015,08,13,04,58,15.00
2015,08,13,04,59,15.00
2015,08,13,05,00,15.00
2015,08,13,05,01,15.00
2015,08,13,05,02,15.00
2015,08,13,05,03,15.00
2015,08,13,05,04,15.00
2015,08,13,05,05,15.00
2015,08,13,05,06,15.00
2015,08,13,05,07,15.00
2015,08,13,05,08,15.00
2015,08,13,05,09,15.00
2015,08,13,05,10,15.00
2015,08,13,05,11,15.00
2015,08,13,05,12,15.00
2015,08,13,05,13,15.00
2015,08,13,05,14,15.00
2015,08,13,05,15,14.90
2015,08,13,05,16,15.00
2015,08,13,05,17,14.90
2015,08,13,05,18,14.90
2015,08,13,05,19,14.90
2015,08,13,05,20,14.80
2015,08,13,05,21,14.80
2015,08,13,05,22,14.70
2015,08,13,05,23,14.70
2015,08,13,05,24,14.70
2015,08,13,05,25,14.70
2015,08,13,05,26,14.70
2015,08,13,05,27,14.70
2015,08,13,05,28,14.70
2015,08,13,05,29,14.60
2015,08,13,05,30,14.60
2015,08,13,05,31,14.60
2015,08,13,05,32,14.60
2015,08,13,05,33,14.60
2015,08,13,05,34,14.60
2015,08,13,05,35,14.60
2015,08,13,05,36,14.60
2015,08,13,05,37,14.60
2015,08,13,05,38,14.60
2015,08,13,05,39,14.60
2015,08,13,05,40,14.60
2015,08,13,05,41,14.60
2015,08,13,05,42,14.50
2015,08,13,05,43,14.50
2015,08,13,05,44,14.40
2015,08,13,05,45,14.40
2015,08,13,05,46,14.40
2015,08,13,05,47,14.40
2015,08,13,05,48,14.30
2015,08,13,05,49,14.30
2015,08,13,05,50,14.30
2015,08,13,05,51,14.20
2015,08,13,05,52,14.20
2015,08,13,05,53,14.20
2015,08,13,05,54,14.20
2015,08,13,05,55,14.20
2015,08,13,05,56,14.20
2015,08,13,05,57,14.10
2015,08,13,05,58,14.10
2015,08,13,05,59,14.10
2015,08,13,06,00,14.10
2015,08,13,06,01,14.10
2015,08,13,06,02,14.20
2015,08,13,06,03,14.20
2015,08,13,06,04,14.20
2015,08,13,06,05,14.20
2015,08,13,06,06,14.20
2015,08,13,06,07,14.30
2015,08,13,06,08,14.30
2015,08,13,06,09,14.40
2015,08,13,06,10,14.50
2015,08,13,06,11,14.60
2015,08,13,06,12,14.70
2015,08,13,06,13,14.70
2015,08,13,06,14,14.70
2015,08,13,06,15,14.70
2015,08,13,06,16,14.70
2015,08,13,06,17,14.80
2015,08,13,06,18,14.80
2015,08,13,06,19,14.80
2015,08,13,06,20,14.80
2015,08,13,06,21,14.80
2015,08,13,06,22,14.80
2015,08,13,06,23,14.80
2015,08,13,06,24,14.80
2015,08,13,06,25,14.70
2015,08,13,06,26,14.70
2015,08,13,06,27,14.70
2015,08,13,06,28,14.60
2015,08,13,06,29,14.60
2015,08,13,06,30,14.60
2015,08,13,06,31,14.60
2015,08,13,06,32,14.60
2015,08,13,06,33,14.60
2015,08,13,06,34,14.60
2015,08,13,06,35,14.60
2015,08,13,06,36,14.60
2015,08,13,06,37,14.60
2015,08,13,06,38,14.60
2015,08,13,06,39,14.60
2015,08,13,06,40,14.60
2015,08,13,06,41,14.60
2015,08,13,06,42,14.60
2015,08,13,06,43,14.60
2015,08,13,06,44,14.60
2015,08,13,06,45,14.70
2015,08,13,06,46,14.70
2015,08,13,06,47,14.70
2015,08,13,06,48,14.80
2015,08,13,06,49,14.80
2015,08,13,06,50,14.80
2015,08,13,06,51,14.70
2015,08,13,06,52,14.70
2015,08,13,06,53,14.70
2015,08,13,06,54,14.70
2015,08,13,06,55,14.70
2015,08,13,06,56,14.70
2015,08,13,06,57,14.70
2015,08,13,06,58,14.70
2015,08,13,06,59,14.70
2015,08,13,07,00,14.70
2015,08,13,07,01,14.80
2015,08,13,07,02,14.80
2015,08,13,07,03,14.80
2015,08,13,07,04,14.80
2015,08,13,07,05,14.90
2015,08,13,07,06,14.90
2015,08,13,07,07,15.00
2015,08,13,07,08,15.00
2015,08,13,07,09,15.00
2015,08,13,07,10,15.00
2015,08,13,07,11,15.00
2015,08,13,07,12,15.00
2015,08,13,07,13,15.00
2015,08,13,07,14,15.00
2015,08,13,07,15,15.00
2015,08,13,07,16,15.10
2015,08,13,07,17,15.20
2015,08,13,07,18,15.30
2015,08,13,07,19,15.40
2015,08,13,07,20,15.60
2015,08,13,07,21,15.70
2015,08,13,07,22,15.80
2015,08,13,07,23,15.90
2015,08,13,07,24,15.90
2015,08,13,07,25,16.00
2015,08,13,07,26,16.00
2015,08,13,07,27,16.10
2015,08,13,07,28,16.10
2015,08,13,07,29,16.10
2015,08,13,07,30,16.10
2015,08,13,07,31,16.20
2015,08,13,07,32,16.30
2015,08,13,07,33,16.30
2015,08,13,07,34,16.40
2015,08,13,07,35,16.50
2015,08,13,07,36,16.50
2015,08,13,07,37,16.60
2015,08,13,07,38,16.70
2015,08,13,07,39,16.80
2015,08,13,07,40,16.90
2015,08,13,07,41,17.00
2015,08,13,07,42,17.10
2015,08,13,07,43,17.20
2015,08,13,07,44,17.20
2015,08,13,07,45,17.30
2015,08,13,07,46,17.30
2015,08,13,07,47,17.40
2015,08,13,07,48,17.40
2015,08,13,07,49,17.50
2015,08,13,07,50,17.50
2015,08,13,07,51,17.60
2015,08,13,07,52,17.60
2015,08,13,07,53,17.60
2015,08,13,07,54,17.70
2015,08,13,07,55,17.70
2015,08,13,07,56,17.80
2015,08,13,07,57,17.90
2015,08,13,07,58,18.00
2015,08,13,07,59,18.20
2015,08,13,08,00,18.30
2015,08,13,08,01,18.40
2015,08,13,08,02,18.50
2015,08,13,08,03,18.60
2015,08,13,08,04,18.60
2015,08,13,08,05,18.70
2015,08,13,08,06,18.80
2015,08,13,08,07,18.90
2015,08,13,08,08,18.90
2015,08,13,08,09,18.90
2015,08,13,08,10,19.00
2015,08,13,08,11,19.00
2015,08,13,08,12,19.10
2015,08,13,08,13,19.10
2015,08,13,08,14,19.20
2015,08,13,08,15,19.20
2015,08,13,08,16,19.20
2015,08,13,08,17,19.30
2015,08,13,08,18,19.40
2015,08,13,08,19,19.40
2015,08,13,08,20,19.40
2015,08,13,08,21,19.50
2015,08,13,08,22,19.60
2015,08,13,08,23,19.60
2015,08,13,08,24,19.60
2015,08,13,08,25,19.60
2015,08,13,08,26,19.50
2015,08,13,08,27,19.50
2015,08,13,08,28,19.60
2015,08,13,08,29,19.60
2015,08,13,08,30,19.60
2015,08,13,08,31,19.60
2015,08,13,08,32,19.60
2015,08,13,08,33,19.60
2015,08,13,08,34,19.50
2015,08,13,08,35,19.50
2015,08,13,08,36,19.60
2015,08,13,08,37,19.60
2015,08,13,08,38,19.70
2015,08,13,08,39,19.80
2015,08,13,08,40,19.80
2015,08,13,08,41,19.80
2015,08,13,08,42,19.80
2015,08,13,08,43,19.80
2015,08,13,08,44,19.70
2015,08,13,08,45,19.70
2015,08,13,08,46,19.60
2015,08,13,08,47,19.60
2015,08,13,08,48,19.60
2015,08,13,08,49,19.60
2015,08,13,08,50,19.60
2015,08,13,08,51,19.60
2015,08,13,08,52,19.70
2015,08,13,08,53,19.70
2015,08,13,08,54,19.70
2015,08,13,08,55,19.70
2015,08,13,08,56,19.70
2015,08,13,08,57,19.70
2015,08,13,08,58,19.70
2015,08,13,08,59,19.80
2015,08,13,09,00,19.90
2015,08,13,09,01,19.90
2015,08,13,09,02,19.90
2015,08,13,09,03,20.00
2015,08,13,09,04,20.00
2015,08,13,09,05,20.10
2015,08,13,09,06,20.00
2015,08,13,09,07,20.00
2015,08,13,09,08,20.00
2015,08,13,09,09,20.00
2015,08,13,09,10,20.10
2015,08,13,09,11,20.10
2015,08,13,09,12,20.10
2015,08,13,09,13,20.10
2015,08,13,09,14,20.10
2015,08,13,09,15,20.10
2015,08,13,09,16,20.10
2015,08,13,09,17,20.10
2015,08,13,09,18,20.20
2015,08,13,09,19,20.10
2015,08,13,09,20,20.10
2015,08,13,09,21,20.10
2015,08,13,09,22,20.20
2015,08,13,09,23,20.20
2015,08,13,09,24,20.20
2015,08,13,09,25,20.30
2015,08,13,09,26,20.40
2015,08,13,09,27,20.60
2015,08,13,09,28,20.70
2015,08,13,09,29,20.70
2015,08,13,09,30,20.70
2015,08,13,09,31,20.70
2015,08,13,09,32,20.70
2015,08,13,09,33,20.70
2015,08,13,09,34,20.60
2015,08,13,09,35,20.60
2015,08,13,09,36,20.60
2015,08,13,09,37,20.60
2015,08,13,09,38,20.60
2015,08,13,09,39,20.70
2015,08,13,09,40,20.70
2015,08,13,09,41,20.80
2015,08,13,09,42,20.90
2015,08,13,09,43,21.00
2015,08,13,09,44,21.00
2015,08,13,09,45,21.00
2015,08,13,09,46,21.00
2015,08,13,09,47,21.00
2015,08,13,09,48,21.10
2015,08,13,09,49,21.10
2015,08,13,09,50,21.20
2015,08,13,09,51,21.20
2015,08,13,09,52,21.10
2015,08,13,09,53,21.20
2015,08,13,09,54,21.20
2015,08,13,09,55,21.30
2015,08,13,09,56,21.40
2015,08,13,09,57,21.40
2015,08,13,09,58,21.50
2015,08,13,09,59,21.60
2015,08,13,10,00,21.40
2015,08,13,10,01,21.30
2015,08,13,10,02,21.30
2015,08,13,10,03,21.40
2015,08,13,10,04,21.40
2015,08,13,10,05,21.30
2015,08,13,10,06,21.20
2015,08,13,10,07,21.20
2015,08,13,10,08,21.10
2015,08,13,10,09,21.10
2015,08,13,10,10,21.10
2015,08,13,10,11,21.20
2015,08,13,10,12,21.20
2015,08,13,10,13,21.20
2015,08,13,10,14,21.20
2015,08,13,10,15,21.20
2015,08,13,10,16,21.20
2015,08,13,10,17,21.10
2015,08,13,10,18,21.10
2015,08,13,10,19,21.10
2015,08,13,10,20,21.10
2015,08,13,10,21,21.10
2015,08,13,10,22,21.10
2015,08,13,10,23,21.10
2015,08,13,10,24,21.00
2015,08,13,10,25,21.00
2015,08,13,10,26,21.10
2015,08,13,10,27,21.20
2015,08,13,10,28,21.20
2015,08,13,10,29,21.30
2015,08,13,10,30,21.30
2015,08,13,10,31,21.30
2015,08,13,10,32,21.20
2015,08,13,10,33,21.10
2015,08,13,10,34,21.00
2015,08,13,10,35,20.90
2015,08,13,10,36,20.90
2015,08,13,10,37,20.90
2015,08,13,10,38,21.00
2015,08,13,10,39,21.10
2015,08,13,10,40,21.10
2015,08,13,10,41,21.10
2015,08,13,10,42,21.10
2015,08,13,10,43,21.00
2015,08,13,10,44,20.90
2015,08,13,10,45,20.90
2015,08,13,10,46,20.90
2015,08,13,10,47,20.90
2015,08,13,10,48,20.90
2015,08,13,10,49,20.90
2015,08,13,10,50,20.90
2015,08,13,10,51,20.90
2015,08,13,10,52,21.00
2015,08,13,10,53,21.00
2015,08,13,10,54,20.90
2015,08,13,10,55,20.90
2015,08,13,10,56,20.80
2015,08,13,10,57,20.80
2015,08,13,10,58,20.90
2015,08,13,10,59,20.90
2015,08,13,11,00,21.00
2015,08,13,11,01,21.10
2015,08,13,11,02,21.20
2015,08,13,11,03,21.30
2015,08,13,11,04,21.10
2015,08,13,11,05,21.00
2015,08,13,11,06,20.90
2015,08,13,11,07,20.80
2015,08,13,11,08,20.70
2015,08,13,11,09,20.80
2015,08,13,11,10,20.70
2015,08,13,11,11,20.80
2015,08,13,11,12,20.80
2015,08,13,11,13,20.90
2015,08,13,11,14,21.00
2015,08,13,11,15,21.00
2015,08,13,11,16,21.00
2015,08,13,11,17,21.00
2015,08,13,11,18,21.00
2015,08,13,11,19,21.00
2015,08,13,11,20,21.10
2015,08,13,11,21,21.10
2015,08,13,11,22,21.20
2015,08,13,11,23,21.20
2015,08,13,11,24,21.30
2015,08,13,11,25,21.40
2015,08,13,11,26,21.40
2015,08,13,11,27,21.40
2015,08,13,11,28,21.40
2015,08,13,11,29,21.40
2015,08,13,11,30,21.40
2015,08,13,11,31,21.50
2015,08,13,11,32,21.50
2015,08,13,11,33,21.60
2015,08,13,11,34,21.70
2015,08,13,11,35,21.80
2015,08,13,11,36,21.90
2015,08,13,11,37,22.00
2015,08,13,11,38,22.00
2015,08,13,11,39,22.10
2015,08,13,11,40,22.30
2015,08,13,11,41,22.30
2015,08,13,11,42,22.30
2015,08,13,11,43,22.40
2015,08,13,11,44,22.40
2015,08,13,11,45,22.40
2015,08,13,11,46,22.40
2015,08,13,11,47,22.40
2015,08,13,11,48,22.40
2015,08,13,11,49,22.30
2015,08,13,11,50,22.10
2015,08,13,11,51,21.90
2015,08,13,11,52,21.80
2015,08,13,11,53,21.70
2015,08,13,11,54,21.60
2015,08,13,11,55,21.60
2015,08,13,11,56,21.70
2015,08,13,11,57,21.90
2015,08,13,11,58,22.00
2015,08,13,11,59,22.00
2015,08,13,12,00,22.00
2015,08,13,12,01,22.10
2015,08,13,12,02,22.20
2015,08,13,12,03,22.20
2015,08,13,12,04,22.20
2015,08,13,12,05,22.20
2015,08,13,12,06,22.20
2015,08,13,12,07,22.10
2015,08,13,12,08,22.10
2015,08,13,12,09,22.10
2015,08,13,12,10,22.10
2015,08,13,12,11,22.20
2015,08,13,12,12,22.20
2015,08,13,12,13,22.20
2015,08,13,12,14,22.20
2015,08,13,12,15,22.10
2015,08,13,12,16,22.10
2015,08,13,12,17,22.10
2015,08,13,12,18,22.20
2015,08,13,12,19,22.30
2015,08,13,12,20,22.30
2015,08,13,12,21,22.30
2015,08,13,12,22,22.30
2015,08,13,12,23,22.20
2015,08,13,12,24,22.10
2015,08,13,12,25,22.10
2015,08,13,12,26,22.10
2015,08,13,12,27,22.10
2015,08,13,12,28,22.00
2015,08,13,12,29,21.90
2015,08,13,12,30,21.80
2015,08,13,12,31,21.70
2015,08,13,12,32,21.70
2015,08,13,12,33,21.70
2015,08,13,12,34,21.80
2015,08,13,12,35,21.90
2015,08,13,12,36,22.10
2015,08,13,12,37,22.30
2015,08,13,12,38,22.40
2015,08,13,12,39,22.50
2015,08,13,12,40,22.50
2015,08,13,12,41,22.50
2015,08,13,12,42,22.50
2015,08,13,12,43,22.50
2015,08,13,12,44,22.40
2015,08,13,12,45,22.30
2015,08,13,12,46,22.20
2015,08,13,12,47,22.00
2015,08,13,12,48,21.90
2015,08,13,12,49,21.90
2015,08,13,12,50,21.90
2015,08,13,12,51,22.00
2015,08,13,12,52,22.10
2015,08,13,12,53,21.90
2015,08,13,12,54,21.80
2015,08,13,12,55,21.80
2015,08,13,12,56,21.90
2015,08,13,12,57,21.90
2015,08,13,12,58,22.00
2015,08,13,12,59,22.20
2015,08,13,13,00,22.30
2015,08,13,13,01,22.40
2015,08,13,13,02,22.50
2015,08,13,13,03,22.60
2015,08,13,13,04,22.60
2015,08,13,13,05,22.60
2015,08,13,13,06,22.70
2015,08,13,13,07,22.80
2015,08,13,13,08,22.90
2015,08,13,13,09,23.00
2015,08,13,13,10,23.10
2015,08,13,13,11,23.20
2015,08,13,13,12,23.20
2015,08,13,13,13,23.30
2015,08,13,13,14,23.40
2015,08,13,13,15,23.40
2015,08,13,13,16,23.40
2015,08,13,13,17,23.40
2015,08,13,13,18,23.30
2015,08,13,13,19,23.30
2015,08,13,13,20,23.30
2015,08,13,13,21,23.30
2015,08,13,13,22,23.20
2015,08,13,13,23,23.20
2015,08,13,13,24,23.30
2015,08,13,13,25,23.40
2015,08,13,13,26,23.40
2015,08,13,13,27,23.30
2015,08,13,13,28,23.40
2015,08,13,13,29,23.40
2015,08,13,13,30,23.50
2015,08,13,13,31,23.50
2015,08,13,13,32,23.50
2015,08,13,13,33,23.70
2015,08,13,13,34,23.70
2015,08,13,13,35,23.60
2015,08,13,13,36,23.70
2015,08,13,13,37,23.70
2015,08,13,13,38,23.80
2015,08,13,13,39,23.80
2015,08,13,13,40,23.70
2015,08,13,13,41,23.70
2015,08,13,13,42,23.70
2015,08,13,13,43,23.80
2015,08,13,13,44,23.90
2015,08,13,13,45,24.00
2015,08,13,13,46,24.10
2015,08,13,13,47,24.20
2015,08,13,13,48,24.10
2015,08,13,13,49,24.10
2015,08,13,13,50,24.10
2015,08,13,13,51,24.30
2015,08,13,13,52,24.40
2015,08,13,13,53,24.50
2015,08,13,13,54,24.60
2015,08,13,13,55,24.80
2015,08,13,13,56,24.80
2015,08,13,13,57,24.90
2015,08,13,13,58,25.00
2015,08,13,13,59,25.10
2015,08,13,14,00,25.10
2015,08,13,14,01,25.10
2015,08,13,14,02,25.10
2015,08,13,14,03,25.00
2015,08,13,14,04,25.10
2015,08,13,14,05,25.20
2015,08,13,14,06,25.20
2015,08,13,14,07,25.20
2015,08,13,14,08,25.20
2015,08,13,14,09,25.20
2015,08,13,14,10,25.10
2015,08,13,14,11,25.00
2015,08,13,14,12,24.90
2015,08,13,14,13,25.00
2015,08,13,14,14,25.00
2015,08,13,14,15,25.00
2015,08,13,14,16,25.10
2015,08,13,14,17,25.10
2015,08,13,14,18,25.00
2015,08,13,14,19,25.00
2015,08,13,14,20,24.90
2015,08,13,14,21,24.90
2015,08,13,14,22,25.00
2015,08,13,14,23,25.10
2015,08,13,14,24,25.10
2015,08,13,14,25,25.10
2015,08,13,14,26,25.10
2015,08,13,14,27,25.20
2015,08,13,14,28,25.30
2015,08,13,14,29,25.40
2015,08,13,14,30,25.50
2015,08,13,14,31,25.70
2015,08,13,14,32,25.80
2015,08,13,14,33,25.90
2015,08,13,14,34,25.90
2015,08,13,14,35,26.00
2015,08,13,14,36,26.00
2015,08,13,14,37,26.10
2015,08,13,14,38,26.20
2015,08,13,14,39,26.30
2015,08,13,14,40,26.40
2015,08,13,14,41,26.50
2015,08,13,14,42,26.50
2015,08,13,14,43,26.50
2015,08,13,14,44,26.50
2015,08,13,14,45,26.30
2015,08,13,14,46,26.10
2015,08,13,14,47,25.90
2015,08,13,14,48,25.80
2015,08,13,14,49,25.80
2015,08,13,14,50,25.80
2015,08,13,14,51,25.80
2015,08,13,14,52,25.80
2015,08,13,14,53,25.80
2015,08,13,14,54,25.80
2015,08,13,14,55,25.70
2015,08,13,14,56,25.70
2015,08,13,14,57,25.70
2015,08,13,14,58,25.70
2015,08,13,14,59,25.70
2015,08,13,15,00,25.70
2015,08,13,15,01,25.70
2015,08,13,15,02,25.70
2015,08,13,15,03,25.80
2015,08,13,15,04,25.90
2015,08,13,15,05,25.80
2015,08,13,15,06,25.80
2015,08,13,15,07,25.70
2015,08,13,15,08,25.50
2015,08,13,15,09,25.40
2015,08,13,15,10,25.20
2015,08,13,15,11,25.00
2015,08,13,15,12,25.00
2015,08,13,15,13,24.80
2015,08,13,15,14,24.90
2015,08,13,15,15,24.90
2015,08,13,15,16,24.90
2015,08,13,15,17,25.00
2015,08,13,15,18,25.00
2015,08,13,15,19,25.10
2015,08,13,15,20,25.20
2015,08,13,15,21,25.30
2015,08,13,15,22,25.40
2015,08,13,15,23,25.40
2015,08,13,15,24,25.50
2015,08,13,15,25,25.60
2015,08,13,15,26,25.60
2015,08,13,15,27,25.70
2015,08,13,15,28,25.70
2015,08,13,15,29,25.60
2015,08,13,15,30,25.40
2015,08,13,15,31,25.40
2015,08,13,15,32,25.30
2015,08,13,15,33,25.30
2015,08,13,15,34,25.30
2015,08,13,15,35,25.40
2015,08,13,15,36,25.50
2015,08,13,15,37,25.60
2015,08,13,15,38,25.70
2015,08,13,15,39,25.80
2015,08,13,15,40,25.90
2015,08,13,15,41,26.00
2015,08,13,15,42,26.00
2015,08,13,15,43,25.90
2015,08,13,15,44,25.90
2015,08,13,15,45,25.90
2015,08,13,15,46,25.90
2015,08,13,15,47,26.00
2015,08,13,15,48,26.10
2015,08,13,15,49,26.00
2015,08,13,15,50,26.00
2015,08,13,15,51,26.00
2015,08,13,15,52,26.00
2015,08,13,15,53,26.10
2015,08,13,15,54,26.10
2015,08,13,15,55,26.10
2015,08,13,15,56,26.00
2015,08,13,15,57,25.90
2015,08,13,15,58,25.90
2015,08,13,15,59,25.90
2015,08,13,16,00,26.00
2015,08,13,16,01,26.10
2015,08,13,16,02,26.10
2015,08,13,16,03,26.10
2015,08,13,16,04,26.10
2015,08,13,16,05,26.00
2015,08,13,16,06,26.00
2015,08,13,16,07,26.00
2015,08,13,16,08,26.10
2015,08,13,16,09,26.10
2015,08,13,16,10,26.20
2015,08,13,16,11,26.20
2015,08,13,16,12,26.20
2015,08,13,16,13,26.20
2015,08,13,16,14,26.10
2015,08,13,16,15,26.10
2015,08,13,16,16,26.10
2015,08,13,16,17,26.10
2015,08,13,16,18,26.00
2015,08,13,16,19,26.00
2015,08,13,16,20,26.00
2015,08,13,16,21,26.00
2015,08,13,16,22,26.10
2015,08,13,16,23,26.10
2015,08,13,16,24,26.10
2015,08,13,16,25,26.10
2015,08,13,16,26,26.10
2015,08,13,16,27,26.00
2015,08,13,16,28,25.90
2015,08,13,16,29,25.90
2015,08,13,16,30,25.80
2015,08,13,16,31,25.80
2015,08,13,16,32,25.80
2015,08,13,16,33,25.70
2015,08,13,16,34,25.70
2015,08,13,16,35,25.70
2015,08,13,16,36,25.70
2015,08,13,16,37,25.60
2015,08,13,16,38,25.60
2015,08,13,16,39,25.50
2015,08,13,16,40,25.50
2015,08,13,16,41,25.50
2015,08,13,16,42,25.50
2015,08,13,16,43,25.50
2015,08,13,16,44,25.50
2015,08,13,16,45,25.60
2015,08,13,16,46,25.60
2015,08,13,16,47,25.70
2015,08,13,16,48,25.80
2015,08,13,16,49,25.90
2015,08,13,16,50,25.90
2015,08,13,16,51,26.00
2015,08,13,16,52,26.10
2015,08,13,16,53,26.00
2015,08,13,16,54,25.90
2015,08,13,16,55,25.90
2015,08,13,16,56,25.90
2015,08,13,16,57,25.90
2015,08,13,16,58,25.90
2015,08,13,16,59,25.90
2015,08,13,17,00,25.90
2015,08,13,17,01,25.90
2015,08,13,17,02,25.90
2015,08,13,17,03,25.90
2015,08,13,17,04,25.90
2015,08,13,17,05,25.90
2015,08,13,17,06,25.90
2015,08,13,17,07,25.90
2015,08,13,17,08,26.00
2015,08,13,17,09,26.10
2015,08,13,17,10,26.10
2015,08,13,17,11,26.10
2015,08,13,17,12,26.20
2015,08,13,17,13,26.20
2015,08,13,17,14,26.20
2015,08,13,17,15,26.20
2015,08,13,17,16,26.20
2015,08,13,17,17,26.20
2015,08,13,17,18,26.20
2015,08,13,17,19,26.00